Погода в Беруни

Узбекистан     41°41′28″N   60°45′24″E
темп.,
°C
ветер,
м/с
пор.,
м/с
влажн.,
%
обл.,
%
осадки,
мм/ч
давл.,
гПа
погр.,
м
27 февраля, сб
сб2723:00−2ююз4922100 0.0 1029393
02:00−2ююз6122694 0.0 1026477
05:00−1ююз7134194 0.2 1025657
08:00−1юз7146396 0.1 1024598
11:000юз7118898 0.6 1025433
14:00+3юз71076100 0.1 1024535
17:00+5юз797094 0.1 1024495
20:00+3ююз4870100 0.0 1024217
28 февраля, вс
вс2823:00+2ю576996 0.0 1024139
02:00+1ю456289 0.0 102392
05:000ю344657 0.0 102258
08:000ююв443921 0.0 102176
11:00+6ююв462758 0.0 1021346
14:00+10ю562256 0.0 1019762
17:00+11ююв452239 0.0 1017832
20:00+7юв34348 0.0 101739
1 марта, пн
пн123:00+6ююв34434 0.0 101753
02:00+4ююв34450 0.0 101735
05:00+3ююв33460 0.0 101622
08:00+3ююв23480 0.0 101722
11:00+9ю23330 0.0 1017294
14:00+14зюз34250 0.0 1017855
17:00+15з45230 0.0 10161177
20:00+10з34330 0.0 101842
2 марта, вт
вт223:00+7св23440 0.0 102028
02:00+4ссв47710 0.0 1021141
05:00+2ссв35910 0.0 1022139
08:00+1ссв378812 0.0 1024275
11:00+5ссв456947 0.0 1025578
14:00+8с335760 0.0 1025977
17:00+8ссз335880 0.0 1024965
20:00+6ссв3470100 0.0 1025403
3 марта, ср
ср323:00+4св237590 0.0 102594
02:00+3всв238064 0.0 102539
05:00+2в237979 0.0 102453
08:00+3в2477100 0.0 1023118
11:00+6юв445994 0.0 1023593
14:00+9юв334933 0.0 10211109
17:00+10юв234846 0.0 10181291
20:00+8в475391 0.0 1017297